Location: *
(46.0770°N, 1.6444°E)
Time: 07:04:26
(UTC+00:00)

Cosmos 1441 Rocket - Pass Details

Date: 16 September 2019
Orbit: 496 x 541 km, 81.1° (Epoch: 18 October)

Event Time Altitude Azimuth Distance (km) Brightness Sun altitude
Rises 18:32:23 0° 158° (SSE) 2,635 6.5 -5.8°
Reaches altitude 10° 18:34:51 10° 143° (SE) 1,744 5.5 -6.2°
Maximum altitude 18:37:52 22° 91° (E) 1,146 4.4 -6.7°
Drops below altitude 10° 18:40:52 10° 39° (NE) 1,736 5.6 -7.2°
Sets 18:43:18 0° 24° (NNE) 2,619 6.7 -7.6°
